Temp_Advection
nan nan nan nan nan nan nan nan nan nan nan nan nan nan nan nan nan nan nan nan nan nan nan nan nan nan nan nan nan nan nan nan nan nan nan nan nan nan nan nan nan nan nan nan nan nan nan
nan -0 -0 0 -0 -0 -0 -0 -0 -0 -0 -0 -0 -0 -0 -1 -1 -1 -1 -0 -0 0 -0 -0 0 0 -0 -1 0 0 0 -0 -0 0 -0 0 -0 0 -0 0 0 -0 -0 -0 0 0 nan
nan 0 -0 -0 0 -0 0 0 -0 -0 -0 -0 -0 0 -0 -0 -1 -1 -1 -0 -0 0 0 -0 0 0 -0 -0 0 0 0 -0 0 -0 -0 0 0 0 0 -0 0 -0 -1 -1 -0 -0 nan
nan -0 -0 -0 -0 -0 -0 0 0 -0 -0 -0 -0 -0 -0 -0 -1 -1 -1 -1 -0 -0 0 0 0 0 -0 0 0 -0 0 -0 0 0 0 0 0 -0 -0 0 0 -0 -0 -1 0 -0 nan
nan -0 -0 -0 -0 -0 -0 -0 0 0 -0 -0 -0 0 -0 -1 -0 -0 -1 -1 -1 0 0 0 0 -0 -0 0 0 0 -0 -0 -0 0 0 -0 -0 0 -0 -0 -0 -1 -0 -1 -0 0 nan
nan -0 -0 -0 -0 -0 -0 -0 0 0 -0 -0 -0 -0 0 -0 -0 -0 -0 -1 -1 1 0 -0 -0 -0 -0 0 0 0 0 0 -0 -0 -0 -0 -0 -0 -0 -1 -1 -0 0 -0 -0 0 nan
nan -0 -0 -0 -0 -0 -0 -0 -0 0 0 -0 -0 -0 -0 -0 -0 -0 -0 -1 -0 0 -0 -0 -1 -0 -0 -0 -0 0 0 0 0 0 -0 0 0 -1 -2 -1 -0 0 0 -1 -0 0 nan
nan -0 -0 -0 -0 -0 -0 -0 -0 -0 0 -0 -0 -0 -0 -0 -0 0 0 -1 -0 -0 -0 -0 0 0 0 0 -0 -0 0 -0 -0 -0 0 -0 -1 -1 0 0 0 0 -0 -1 -1 -0 nan
nan -0 -0 -0 -0 -0 -0 -1 -0 -0 -0 -0 -0 -0 -0 -0 -0 -0 0 -1 -0 -1 -0 0 0 0 0 0 -0 -0 -0 -0 -0 -0 0 -0 -0 0 0 0 0 0 0 0 -0 -1 nan
nan -0 -0 -0 -0 -0 -0 -1 -0 -0 -0 -0 0 -0 -0 -1 -1 -0 -0 -0 -0 -0 -0 -0 0 0 -0 -0 0 -0 -0 0 -0 -0 -0 -0 0 0 0 -0 -0 -0 -0 0 0 -0 nan
nan -0 -0 -0 0 -0 -0 0 -0 -0 -0 -0 -0 0 1 0 -1 -0 -0 0 -0 -1 -0 -0 0 0 -0 -0 -0 0 0 0 0 -0 0 -0 0 0 -0 -0 0 0 -0 0 -0 0 nan
nan -0 -0 -0 -0 0 -0 0 -0 -0 -0 -0 0 -0 -0 0 -0 -0 -0 -0 -0 -0 0 -0 0 0 0 0 -0 -0 0 0 -0 0 0 -0 -0 -0 -0 0 0 -0 0 0 0 0 nan
nan -0 -0 0 -0 -0 0 -0 -0 -0 -0 -0 -0 -0 0 -0 -0 -0 -0 0 0 -1 -0 -1 -0 -0 0 0 0 -0 0 0 0 0 -0 -0 -0 -0 0 0 0 0 0 -0 0 -0 nan
nan -0 -0 0 0 -0 -0 -0 -0 -0 -0 -0 -1 -0 -0 -0 0 -0 -0 0 -1 -0 0 -0 -0 -0 0 -0 -0 -0 -0 -0 -1 -0 -0 -0 -0 -0 -0 -0 -0 0 0 -0 -0 -0 nan
nan -0 -0 -0 -0 0 -0 -0 -0 -0 -0 0 -1 -0 -0 0 0 0 0 -0 0 -0 -0 -0 -0 -0 0 -0 0 0 0 -1 -0 -0 -0 -0 -0 0 -0 -0 0 -0 -0 -0 -0 -0 nan
nan 0 0 -0 0 -0 0 -0 -0 -0 -0 0 0 -0 0 0 0 0 -0 -0 -0 0 -0 -1 -0 -0 -0 0 -0 -0 0 -0 -0 -1 -0 0 0 0 0 0 0 0 0 0 -0 -0 nan
nan 0 0 -0 -0 -0 -0 -0 -0 -0 -0 0 0 0 -0 0 -0 0 0 0 0 1 0 0 -0 -0 -0 -0 -0 -0 -1 0 -0 0 1 0 0 0 0 -0 -0 -0 0 -0 -0 -0 nan
nan -0 -0 0 -0 -0 -0 -0 0 0 0 0 -0 0 -0 0 0 -0 0 -0 0 0 0 0 0 -0 -1 -1 0 -0 -0 -0 0 0 0 0 0 0 -1 -1 -0 0 0 -0 -0 -0 nan
nan -0 -0 -0 -0 0 0 -0 1 1 1 0 -0 0 0 -0 0 -0 0 0 0 0 0 0 0 0 -0 -0 0 0 0 -0 0 0 0 -0 0 -0 -0 -0 0 1 -0 0 1 0 nan
nan -0 -0 -0 -0 -0 0 0 1 1 1 0 -0 -0 -0 -0 -0 0 -0 0 0 0 0 0 0 0 -0 0 -0 0 0 -0 0 0 0 0 0 -0 -0 -0 -0 0 -1 1 1 -0 nan
nan 0 -0 -0 -0 -0 -0 0 0 0 0 0 -0 0 -0 -0 -0 0 0 0 0 0 0 0 0 0 -0 -0 0 0 0 -0 -0 0 -0 0 0 -0 -0 -0 0 0 -0 1 1 -0 nan
nan -0 0 -0 -0 0 -0 -0 -0 -0 -0 -1 -0 -0 0 0 -0 -0 -0 0 -0 0 0 0 0 0 0 -0 -0 0 0 -0 -0 0 0 0 0 0 -1 -2 -0 -0 0 1 1 0 nan
nan -0 -0 0 -0 -0 -0 0 -0 -0 -1 -0 -0 -0 -0 0 -0 -0 -0 -0 -0 -0 -0 0 0 -0 -0 -0 -0 -0 -0 -0 0 0 0 0 0 -0 -0 -0 -0 0 0 0 -0 0 nan
nan -0 -0 -0 0 -0 -0 -0 -0 -0 -0 0 0 -0 -0 -0 -0 -0 -0 -0 0 0 -0 -0 0 -0 -0 -0 -0 0 0 0 0 0 -0 -0 -0 -0 -0 -1 -0 0 0 1 0 -0 nan
nan 0 0 -0 -0 -0 -0 -0 -0 -0 -0 0 0 -0 -0 0 -0 -0 -0 0 -0 -0 0 -0 -0 -0 0 -0 -0 -0 -0 -0 -0 0 -0 -0 -0 0 -0 -0 -1 -0 0 0 0 -0 nan
nan -0 0 0 -1 -0 -1 -0 -0 -0 0 0 0 -0 -0 -0 -0 -0 0 0 0 -0 -0 -0 -0 0 -0 -0 0 -0 -0 0 -0 -0 -0 0 0 0 -0 -0 -0 0 0 0 -0 0 nan
nan -0 -0 0 -0 -0 -1 -1 -1 -0 -0 -0 -0 0 -0 -0 -0 0 0 0 0 0 -0 -0 -0 -0 0 0 0 -0 -0 -0 0 -0 -0 -0 -0 -0 -0 -0 -1 -0 0 -0 -0 0 nan
nan -0 -0 -0 0 -0 -0 -1 -1 -1 -1 -0 -0 0 0 -0 -0 0 0 0 0 0 0 -0 -0 -0 -0 0 -0 -0 -0 -0 -0 0 -0 -1 -1 -0 -0 -0 -1 0 0 0 -0 -0 nan
nan nan nan nan nan nan nan nan nan nan nan nan nan nan nan nan nan nan nan nan nan nan nan nan nan nan nan nan nan nan nan nan nan nan nan nan nan nan nan nan nan nan nan nan nan nan nan
Wind_Speed
18 18 20 21 21 22 22 22 23 23 23 23 25 23 22 21 17 19 17 17 19 15 12 11 9 7 8 9 14 9 6 9 16 16 17 16 16 15 12 11 10 13 18 14 16 16 17
20 19 21 23 26 24 24 22 23 23 23 25 25 25 24 23 20 17 18 17 21 17 12 11 10 8 7 11 11 14 6 4 9 18 19 14 7 11 6 9 10 2 13 17 16 18 19
19 21 21 24 25 23 26 26 25 25 25 25 26 26 26 23 21 21 15 18 18 19 13 12 11 8 9 11 5 7 14 6 7 15 19 15 7 6 4 5 11 9 14 15 19 21 15
23 23 26 25 23 25 29 28 24 26 26 26 25 30 26 25 22 20 20 16 19 22 16 13 11 7 7 13 12 8 7 8 6 9 11 15 10 6 8 1 4 7 12 12 3 8 15
23 23 23 25 25 27 28 28 27 27 26 25 26 26 27 25 23 20 21 16 26 27 19 15 11 8 7 8 10 11 9 10 10 10 9 13 11 5 5 9 8 10 10 13 9 9 8
26 25 26 27 29 28 30 29 27 26 27 26 25 27 23 20 21 20 18 18 23 24 19 14 6 6 11 8 9 10 12 12 12 15 12 10 8 6 7 10 8 11 15 12 11 4 8
26 27 30 30 32 32 31 31 28 28 27 25 24 23 20 17 19 17 16 14 14 15 31 9 15 4 13 10 10 11 15 15 13 14 7 10 8 13 17 17 15 9 9 11 10 8 16
27 28 31 31 32 34 33 32 30 27 26 25 23 25 21 18 18 17 16 15 6 3 9 10 13 9 11 12 9 13 18 13 13 12 10 5 12 15 11 10 11 13 13 15 14 11 12
28 30 31 32 32 33 33 30 29 27 25 25 27 20 22 20 20 20 17 20 16 14 5 17 18 15 11 11 9 19 21 16 13 14 15 11 2 4 14 11 12 13 12 11 14 17 18
30 28 29 31 33 32 31 30 28 26 25 28 21 23 23 23 20 13 13 12 18 17 4 10 13 11 12 9 5 16 21 11 7 15 12 10 8 5 9 13 11 12 8 8 10 8 6
30 30 30 33 34 32 31 29 27 25 28 25 28 32 27 27 20 11 7 5 14 16 6 17 11 11 20 13 19 13 20 8 11 8 7 4 6 12 12 12 8 7 3 6 8 10 13
29 32 34 34 32 31 29 29 26 28 25 28 32 39 35 30 22 20 13 6 17 2 5 7 8 13 18 16 9 15 18 5 3 7 11 10 4 5 9 7 10 4 4 7 9 5 8
31 33 34 32 30 30 28 28 28 24 25 29 37 27 17 13 12 14 10 12 4 5 12 10 9 14 17 15 11 13 14 11 8 5 8 10 16 8 10 8 6 7 1 2 3 4 7
30 32 31 30 30 28 30 29 26 23 25 33 38 14 8 13 13 16 18 2 7 7 6 7 15 17 9 17 10 15 15 12 16 10 4 8 6 17 12 14 5 12 9 4 5 7 11
29 29 30 30 29 29 29 29 28 23 27 33 32 8 4 13 22 16 8 4 2 11 10 13 17 9 8 19 8 11 13 11 13 13 7 6 3 1 10 7 11 5 8 10 13 18 11
26 28 30 29 29 29 29 31 26 24 31 33 32 4 3 11 20 17 4 7 4 3 14 18 7 6 8 17 10 13 13 12 9 17 12 2 3 6 6 6 9 11 3 2 4 5 11
28 29 29 28 30 28 29 32 27 30 34 29 6 2 8 18 20 4 3 2 2 12 13 2 9 10 10 15 10 15 16 5 15 13 14 7 4 5 3 11 13 10 7 6 6 7 6
27 29 28 27 29 28 30 32 29 31 31 18 6 3 17 17 3 2 3 3 12 13 1 2 7 6 16 16 10 11 8 2 9 10 11 8 3 6 12 9 9 13 13 17 7 8 6
25 29 29 28 28 29 30 31 30 33 20 9 6 6 11 1 3 2 2 3 8 3 2 2 4 2 6 13 6 5 6 4 10 11 9 10 5 3 2 3 12 11 16 17 18 14 20
24 26 26 25 26 28 30 30 30 27 18 6 4 3 1 4 6 7 4 4 5 3 7 9 9 11 10 12 5 7 6 4 8 11 6 6 5 8 7 6 5 6 15 16 12 8 17
26 26 27 25 24 26 28 29 27 25 18 4 4 2 1 2 4 7 5 3 10 4 3 3 4 7 6 4 4 3 4 5 6 8 6 5 4 11 16 20 18 19 22 22 18 19 14
23 24 25 23 24 25 27 28 25 25 15 20 5 4 4 4 10 6 4 2 3 4 1 3 7 6 4 3 2 4 7 6 5 9 10 5 4 4 12 19 16 16 22 16 15 17 16
21 22 23 23 23 24 24 25 24 22 23 10 11 5 3 5 8 6 6 8 4 5 4 7 6 4 3 4 1 1 3 2 1 3 11 5 3 3 6 12 20 7 2 8 11 13 11
20 20 20 22 21 23 22 24 22 19 17 14 8 4 3 3 6 7 7 5 4 2 3 4 2 1 6 4 2 1 5 9 10 9 10 5 6 3 6 12 3 1 5 8 8 12 8
19 20 21 22 22 21 20 22 21 18 17 16 2 1 4 1 5 7 9 5 7 6 4 5 4 5 3 2 2 2 3 3 8 13 14 12 6 3 3 6 15 8 5 4 2 5 7
19 20 20 20 19 20 21 21 19 16 16 11 5 3 4 3 6 9 9 11 5 4 2 3 3 2 3 2 1 2 2 2 4 4 3 10 12 5 3 4 4 4 5 2 2 2 10
18 19 20 21 21 21 20 20 19 18 14 10 4 7 2 5 4 11 8 7 4 3 1 3 3 2 4 2 1 2 3 2 3 4 5 4 2 8 8 5 9 9 5 1 5 7 14
19 18 20 21 20 21 20 18 17 18 13 7 3 6 1 3 1 3 3 5 6 6 2 5 3 2 2 2 1 2 4 2 3 3 5 8 7 4 4 4 7 3 5 4 8 14 10
19 18 19 20 20 20 20 18 16 17 11 9 3 7 5 3 1 5 7 7 5 2 4 7 3 4 3 2 3 2 2 2 5 3 5 5 7 1 8 5 6 9 11 14 9 11 8
Wind_Direction
354 354 348 348 345 339 336 335 333 334 333 331 327 322 315 318 279 268 260 261 240 259 264 254 244 219 182 214 241 261 207 209 216 208 194 188 203 209 216 208 212 237 257 245 262 257 256
347 346 344 340 338 337 331 329 328 328 328 326 326 321 314 306 288 276 260 256 255 239 247 238 237 211 203 233 225 233 206 214 197 201 189 193 215 222 267 234 211 310 266 270 254 257 251
340 339 334 330 329 328 320 325 324 322 322 320 316 318 310 301 301 273 272 249 254 229 229 225 225 210 230 219 238 220 209 201 193 200 200 196 216 186 201 253 233 266 264 265 250 244 238
335 332 328 323 325 326 319 323 317 315 314 315 314 312 306 300 296 288 272 254 241 231 219 216 210 195 243 230 228 219 196 205 195 184 195 191 185 216 225 178 202 236 244 257 145 231 235
327 325 324 327 323 319 317 316 316 315 312 308 310 305 300 298 301 287 282 267 230 224 206 197 186 195 240 244 209 200 183 181 170 155 159 166 169 185 210 230 231 218 256 218 248 197 244
327 327 327 321 319 318 318 314 315 316 312 313 312 309 302 296 302 292 291 276 230 201 184 168 190 195 220 204 176 172 173 175 157 145 134 161 175 175 205 213 220 237 220 247 259 171 232
329 327 324 323 321 319 316 317 319 314 313 310 312 312 304 297 297 300 292 295 223 176 179 182 188 161 142 146 143 163 170 166 168 171 166 186 205 214 224 229 257 279 283 277 276 288 283
327 327 323 321 319 317 318 321 321 316 313 311 316 313 308 305 291 292 273 279 262 229 165 207 165 146 147 156 138 165 169 167 184 185 155 163 227 234 247 265 250 253 263 266 278 288 294
328 327 326 326 323 321 325 322 322 319 314 314 319 304 302 297 298 289 269 267 228 243 209 185 172 171 163 163 170 174 181 189 194 199 201 207 134 243 237 226 232 240 257 277 284 302 291
335 333 329 328 328 329 326 325 323 320 323 321 313 297 295 301 297 266 250 263 226 226 188 157 194 206 167 155 183 178 180 169 198 209 195 230 227 216 217 230 232 259 271 272 279 292 281
336 328 331 332 333 329 328 328 327 328 325 319 313 310 300 297 260 270 258 331 226 203 188 147 147 155 176 172 131 178 178 190 193 194 171 197 218 217 230 228 228 242 327 268 282 286 308
333 330 334 335 335 333 333 334 333 332 321 320 320 311 300 270 243 238 253 255 178 217 164 135 132 166 161 182 152 149 178 205 243 211 218 254 157 217 211 220 225 81 265 260 265 272 257
335 333 340 340 339 340 337 336 335 330 326 327 326 317 322 229 198 208 202 146 137 256 158 139 156 159 162 172 156 166 177 189 180 170 213 231 229 214 230 227 205 214 208 270 213 208 251
333 339 343 345 344 342 340 339 338 329 328 332 332 332 310 199 166 162 163 123 234 138 127 153 137 151 165 164 182 173 178 193 220 214 151 198 199 201 174 214 190 208 207 224 265 247 291
337 344 345 347 346 344 343 343 337 329 330 333 336 338 1 182 167 154 152 209 24 142 135 137 136 145 136 179 155 176 195 198 206 200 208 189 246 161 173 195 211 176 209 245 279 279 278
341 343 346 348 347 347 346 346 340 334 333 336 338 343 50 151 162 161 192 201 348 80 139 143 131 178 155 172 165 180 178 199 200 206 220 360 241 187 169 221 226 215 329 176 209 272 270
343 346 348 348 350 351 348 344 344 341 339 354 339 68 120 141 155 111 129 173 114 138 138 221 144 149 168 170 182 182 185 135 201 193 197 203 222 131 141 209 203 197 227 227 308 230 273
346 348 350 351 351 353 351 348 347 346 354 26 101 87 148 138 89 226 149 219 142 149 79 113 131 147 154 169 165 178 172 78 184 188 184 203 218 246 240 246 223 227 217 221 232 233 233
348 349 351 353 353 354 353 351 354 3 11 66 64 98 152 223 161 160 90 91 125 140 24 129 119 118 137 153 157 176 179 103 166 177 177 160 212 283 236 209 231 233 246 247 243 270 256
350 349 352 351 354 354 355 355 4 11 10 66 93 88 220 301 274 130 110 98 99 31 66 88 103 122 123 145 45 160 155 139 177 196 79 200 225 238 274 325 345 234 249 252 244 255 267
357 352 351 351 351 356 357 359 8 17 35 70 47 71 176 166 179 84 110 73 138 130 84 76 87 113 116 131 139 174 171 145 166 190 176 206 243 260 268 276 281 271 272 273 260 252 251
349 353 350 354 353 357 359 0 12 19 40 52 33 354 8 139 151 138 86 131 172 115 60 91 116 113 79 104 93 169 177 204 208 173 200 210 258 307 283 276 267 287 286 287 268 266 260
349 351 350 354 355 351 360 358 9 23 27 24 11 14 308 170 183 174 179 176 163 154 59 69 107 126 97 65 106 56 282 291 139 173 202 197 221 284 272 316 309 267 285 280 283 285 266
349 354 353 345 349 351 357 355 4 17 16 13 355 342 313 170 197 189 159 186 176 231 101 94 102 77 82 91 106 172 238 255 250 227 235 230 203 240 290 317 274 76 324 277 273 282 310
345 351 355 351 351 350 347 350 356 1 3 1 8 188 293 179 199 195 186 167 135 133 108 119 82 89 70 353 259 289 190 217 232 225 210 224 228 277 276 310 281 275 325 309 315 283 300
339 347 351 347 341 337 336 341 350 352 357 8 96 7 299 296 209 197 192 180 177 184 155 144 131 220 37 268 124 274 272 344 152 133 235 220 227 235 318 307 288 7 349 357 227 325 14
332 339 343 343 344 339 333 333 342 346 350 357 76 17 222 268 334 191 194 202 178 181 99 96 133 107 161 195 193 250 267 296 263 188 159 159 184 225 241 263 276 298 349 154 305 355 1
326 332 337 340 343 342 338 338 344 336 346 1 345 16 51 293 331 173 210 190 191 203 181 137 144 152 145 188 236 231 259 234 273 235 177 184 176 194 198 243 273 35 298 309 342 321 342
322 326 332 336 338 342 337 333 329 330 341 351 317 351 147 199 301 198 198 217 226 209 226 177 2 126 123 195 222 342 303 278 293 277 200 234 224 201 203 221 306 309 278 301 310 305 324
Height
1514 1511 1509 1505 1502 1498 1494 1490 1487 1483 1479 1476 1473 1470 1468 1466 1464 1463 1463 1463 1461 1464 1465 1465 1465 1466 1469 1471 1468 1464 1465 1466 1469 1472 1474 1477 1479 1478 1476 1473 1475 1477 1478 1475 1476 1476 1478
1514 1510 1507 1504 1500 1496 1492 1487 1483 1479 1476 1473 1469 1465 1463 1460 1458 1457 1457 1458 1459 1460 1461 1462 1463 1464 1468 1468 1463 1464 1466 1467 1468 1470 1472 1475 1477 1477 1476 1474 1476 1474 1478 1475 1475 1475 1476
1512 1508 1505 1501 1498 1492 1489 1485 1480 1476 1472 1469 1465 1461 1458 1455 1453 1452 1452 1452 1454 1456 1458 1458 1462 1463 1465 1463 1461 1461 1464 1467 1467 1468 1471 1473 1477 1479 1479 1478 1478 1479 1479 1474 1470 1471 1471
1511 1507 1502 1496 1493 1490 1485 1480 1476 1472 1468 1465 1461 1456 1454 1450 1448 1447 1446 1446 1449 1451 1454 1456 1459 1462 1461 1457 1459 1460 1462 1466 1467 1468 1470 1473 1477 1480 1480 1480 1479 1477 1474 1471 1456 1462 1465
1507 1503 1499 1494 1489 1485 1482 1476 1472 1467 1463 1460 1456 1453 1449 1446 1444 1442 1441 1442 1444 1446 1451 1454 1458 1460 1458 1454 1456 1458 1462 1465 1467 1468 1470 1472 1476 1479 1481 1479 1476 1471 1464 1459 1455 1459 1463
1506 1501 1497 1492 1487 1481 1476 1471 1467 1463 1459 1454 1451 1447 1443 1442 1441 1438 1437 1437 1439 1440 1447 1453 1456 1462 1454 1452 1453 1456 1461 1464 1466 1467 1471 1473 1474 1477 1481 1478 1465 1453 1458 1457 1458 1455 1461
1502 1498 1493 1488 1483 1477 1471 1465 1462 1457 1454 1450 1447 1443 1440 1438 1437 1435 1435 1435 1441 1436 1439 1440 1441 1444 1446 1450 1452 1455 1460 1464 1466 1467 1467 1471 1471 1468 1462 1462 1459 1459 1464 1459 1454 1457 1459
1498 1493 1487 1483 1478 1472 1466 1461 1457 1453 1449 1445 1442 1439 1437 1435 1433 1432 1432 1431 1430 1432 1436 1438 1438 1443 1445 1448 1451 1456 1460 1462 1464 1465 1465 1474 1470 1463 1463 1465 1465 1467 1466 1463 1458 1458 1459
1495 1490 1484 1478 1473 1467 1462 1457 1452 1447 1444 1440 1437 1434 1432 1430 1429 1428 1427 1426 1429 1429 1427 1433 1437 1440 1444 1448 1448 1454 1458 1458 1461 1463 1465 1462 1459 1465 1465 1467 1469 1467 1468 1468 1469 1463 1458
1493 1486 1479 1474 1469 1463 1457 1452 1447 1442 1439 1436 1432 1430 1426 1426 1426 1423 1424 1423 1425 1427 1428 1430 1433 1437 1442 1444 1447 1451 1456 1458 1459 1460 1461 1461 1459 1466 1466 1466 1466 1465 1460 1463 1467 1470 1460
1488 1483 1475 1470 1465 1459 1453 1448 1443 1438 1435 1430 1427 1423 1420 1418 1419 1420 1422 1419 1422 1428 1406 1424 1430 1433 1436 1441 1444 1451 1455 1459 1456 1455 1459 1460 1462 1464 1468 1465 1465 1468 1467 1469 1467 1467 1469
1485 1478 1472 1466 1460 1455 1449 1444 1439 1435 1430 1425 1420 1413 1406 1405 1411 1415 1417 1417 1421 1425 1397 1419 1425 1430 1434 1439 1443 1449 1454 1459 1458 1457 1459 1456 1462 1464 1463 1465 1466 1469 1468 1470 1469 1473 1468
1483 1475 1468 1463 1457 1451 1446 1441 1435 1431 1426 1420 1413 1405 1399 1398 1405 1411 1416 1417 1418 1404 1406 1417 1418 1426 1431 1435 1441 1447 1451 1455 1454 1463 1462 1460 1458 1463 1464 1465 1466 1468 1474 1464 1467 1471 1450
1480 1473 1466 1460 1454 1448 1443 1436 1431 1426 1422 1416 1408 1400 1397 1398 1404 1409 1414 1420 1405 1399 1398 1405 1415 1425 1431 1435 1438 1441 1448 1454 1450 1449 1452 1460 1453 1452 1460 1461 1460 1465 1468 1460 1449 1435 1424
1478 1471 1464 1458 1452 1446 1440 1433 1428 1423 1418 1412 1403 1400 1397 1397 1403 1408 1414 1414 1397 1391 1400 1405 1419 1425 1428 1432 1434 1439 1440 1445 1444 1448 1452 1449 1453 1449 1454 1455 1459 1464 1470 1461 1462 1452 1449
1476 1469 1462 1456 1450 1443 1437 1432 1425 1419 1414 1407 1402 1400 1399 1400 1405 1410 1414 1406 1405 1397 1400 1406 1411 1418 1424 1428 1431 1435 1441 1436 1441 1442 1444 1445 1453 1450 1453 1457 1458 1459 1457 1467 1469 1458 1432
1473 1467 1461 1455 1449 1442 1436 1430 1423 1417 1409 1402 1401 1402 1404 1404 1408 1410 1404 1409 1406 1404 1405 1406 1408 1413 1419 1425 1425 1432 1435 1435 1434 1437 1443 1448 1451 1455 1459 1455 1447 1457 1460 1461 1454 1450 1431
1470 1464 1459 1453 1447 1442 1434 1428 1421 1414 1406 1397 1399 1403 1409 1410 1414 1413 1412 1411 1406 1410 1412 1410 1408 1407 1414 1420 1421 1423 1426 1429 1435 1437 1443 1447 1452 1453 1447 1440 1442 1441 1449 1452 1452 1434 1436
1469 1464 1458 1452 1446 1441 1434 1427 1419 1412 1406 1404 1405 1408 1414 1413 1410 1411 1411 1409 1410 1412 1411 1410 1411 1412 1415 1417 1425 1423 1426 1435 1438 1440 1440 1445 1453 1447 1441 1438 1438 1441 1438 1437 1439 1439 1427
1468 1463 1458 1452 1446 1440 1434 1426 1419 1413 1407 1407 1409 1414 1418 1414 1410 1410 1411 1413 1414 1415 1413 1412 1413 1414 1416 1420 1423 1426 1431 1437 1440 1442 1444 1444 1445 1445 1433 1431 1436 1447 1436 1433 1441 1431 1411
1467 1462 1458 1452 1447 1441 1435 1427 1420 1415 1411 1408 1411 1415 1415 1414 1411 1412 1413 1415 1414 1413 1416 1415 1417 1415 1417 1422 1426 1429 1430 1436 1440 1442 1445 1446 1450 1444 1440 1434 1433 1431 1426 1420 1426 1420 1415
1467 1461 1456 1452 1447 1441 1436 1429 1422 1418 1415 1413 1413 1411 1410 1411 1411 1413 1414 1418 1413 1417 1415 1417 1416 1420 1420 1420 1425 1428 1432 1436 1431 1439 1443 1444 1444 1442 1437 1424 1418 1412 1406 1408 1407 1404 1398
1465 1460 1455 1450 1446 1441 1436 1431 1425 1422 1418 1417 1418 1417 1417 1415 1413 1410 1413 1414 1413 1416 1420 1420 1420 1420 1422 1426 1429 1431 1432 1433 1434 1437 1438 1442 1444 1441 1424 1416 1410 1402 1408 1405 1402 1399 1396
1462 1458 1454 1450 1445 1441 1437 1432 1427 1424 1423 1423 1419 1419 1418 1415 1414 1411 1410 1413 1415 1416 1418 1422 1423 1421 1429 1429 1430 1431 1432 1433 1436 1436 1440 1436 1438 1439 1430 1415 1405 1392 1393 1395 1397 1392 1389
1461 1456 1451 1449 1444 1440 1437 1433 1429 1424 1422 1419 1418 1420 1418 1413 1413 1413 1414 1415 1418 1420 1421 1423 1426 1428 1429 1430 1428 1427 1425 1430 1423 1428 1432 1435 1435 1433 1427 1417 1401 1384 1385 1389 1392 1388 1383
1460 1454 1449 1447 1442 1438 1435 1432 1428 1425 1421 1420 1419 1419 1419 1417 1412 1413 1415 1416 1416 1418 1423 1425 1427 1428 1430 1430 1431 1428 1418 1409 1413 1427 1428 1430 1432 1435 1423 1427 1407 1383 1384 1387 1386 1381 1377
1459 1453 1447 1444 1439 1435 1432 1429 1426 1423 1420 1419 1419 1418 1419 1418 1412 1413 1415 1417 1419 1420 1420 1425 1427 1428 1430 1428 1431 1430 1421 1412 1409 1407 1424 1430 1433 1431 1431 1427 1400 1381 1383 1385 1379 1379 1376
1458 1452 1447 1442 1437 1433 1430 1428 1426 1423 1420 1418 1418 1417 1417 1417 1414 1415 1416 1418 1419 1420 1419 1426 1427 1428 1430 1430 1431 1426 1419 1411 1409 1401 1409 1414 1419 1423 1427 1423 1409 1383 1381 1384 1379 1377 1378
1455 1450 1444 1440 1436 1432 1428 1426 1424 1422 1419 1418 1416 1416 1414 1416 1416 1416 1416 1418 1419 1420 1421 1423 1423 1423 1426 1429 1428 1428 1422 1411 1406 1402 1403 1407 1397 1398 1401 1394 1381 1383 1383 1381 1380 1378 1377